SL-14 DEB, 47078

Orbit data source: Space-Track

SL-14 DEB, 47078 is space debris in LEO originally from a launch on Thu, 15 Aug 1991 UTC launched from the Plesetsk Missile And Space Complex (PKMTR). Debris objects in space refer to the collection of defunct objects orbiting the Earth. Examples of debris include non-operational satellites, rocket bodies, and fragments generated from explosions, collisions, or faulty payload assembly.

Loading next visibility...
Identifier
47078, 1991-056DC
Orbit
LEO
Last TLE update
14 hours ago
Origin
Manufacturer
Unknown
Mission
Spacecraft
Bus & Motor
Unknown
Mass
Unknown
Launch date (UTC)
1991-08-15 (34 years ago)
Launch vehicle
Unknown
Launch site
Plesetsk Missile And Space Complex (PKMTR)
Object type
Payload
Rocket body
Debris
Shape & HBR
Unknown
Radar Cross Section
Small (<0.1 m²)

Expand to show TLE details & history

TLE from 14 hours ago
0 SL-14 DEB
1 47078U 91056DC  25199.38971988  .00000605  00000-0  12726-2 0  9997
2 47078  82.5581 349.6131 0042244  63.8681 296.6786 13.29469208228170
Epoch: 2025-07-18T09:21Z
TLE epoch observation values (Epoch: 2025-07-18T09:21:11.797Z)
Latitude
0.00006°
Longitude
-87.12792°
Altitude
1,137.42 km
Speed
7.291 km/s
True Right ascension
23h 18m 27s
True Declination
0° 00' 00"
Sunlit
Object was in full shadow at epoch
Visualization orbit readout
Latitude
-33.13116°
Longitude
-92.42311°
Altitude
1,164.093 km
Speed
7.269 km/s
Apparent Right ascension
23h 35m 51s
Apparent Declination
-36° 34' 34"
Sunlit
Object is in full shadow
Visualization observer readout
Local Sidereal Time
12:25:47
Azimuth
75.139° E
Elevation
-79.651°
Doppler factor
1
Orbital elements
Apogee altitude
1,177.778 km
Perigee altitude
1,114.208 km
Semi-major axis
7,524.13 km
Eccentricity
0.00422
Inclination
82.5581°
RAAN
349.6131°
Arg. of periapsis
63.8681°
True anomaly
296.24503°
Mean anomaly
296.6786°
Eccentric anomaly
296.46192°
Mean motion
3.32551 °/min
Orbital period
108.25 mins
BSTAR
0.0012726
Loading maneuver chart data...
Loading SW <> Apogee altitude chart data...
Loading historical data...
Loading historical data...
Loading historical data...
Loading historical data...
Loading historical data...
Loading historical data...
Loading historical data...
|